Regional Weather Roundup
Issued by NWS

Home | Current Version | Previous Version | Text Only | Print | Product List | Glossary Off
Versions: 1 2 3 4 5 6 7 8 9 10 11 12 13 14 15 16 17 18 19 20 21 22 23 24 25 26 27 28

000
ASUS45 KGTF 251110
RWRMT
MONTANA HOURLY WEATHER ROUNDUP
NATIONAL WEATHER SERVICE GREAT FALLS MT
500 AM MDT SAT APR 25 2015

NOTE: "FAIR" INDICATES FEW OR NO CLOUDS BELOW 12000 FEET WITH NO
SIGNIFICANT WEATHER AND/OR OBSTRUCTIONS TO VISIBILITY.

MTZ001>007-043-251200-
WEST OF THE DIVIDE

CITY           SKY/WX    TMP DP  RH WIND       PRES   REMARKS
KALISPELL      CLOUDY    30  26  85 CALM      29.82R
MISSOULA       CLOUDY    32  25  75 NW3       29.83F
BUTTE          CLOUDY    33  26  75 NW6       29.78S WCI  28
DEER LODGE       N/A     34  25  69 N3        29.83S
EUREKA           N/A     34  27  75 CALM      29.84R
HAMILTON         N/A     34  27  75 CALM      29.81R
LIBBY            N/A     28  25  86 CALM      29.85S
$$

MTZ008-052>055-251200-
SOUTHWEST MONTANA

CITY           SKY/WX    TMP DP  RH WIND       PRES   REMARKS
BOZEMAN        FLURRIES  35  33  92 W8        29.79R WCI  29
DILLON         LGT SNOW  33  32  96 CALM      29.77R FOG
$$

MTZ009-010-012-014-046-048-049-054-251200-
EAST SLOPES AND CENTRAL MONTANA

CITY           SKY/WX    TMP DP  RH WIND       PRES   REMARKS
GREAT FALLS    CLOUDY    38  36  92 SW16      29.75S WCI  29
MALMSTROM AFB  CLOUDY    40  34  80 SW2       29.77R
HELENA         CLOUDY    43  25  49 N3        29.77R
$$

MTZ011-013-016-021-045-047-050-051-251200-
NORTH CENTRAL MONTANA

CITY           SKY/WX    TMP DP  RH WIND       PRES   REMARKS
HAVRE          CLOUDY    45  24  43 W7        29.73R
LEWISTOWN      FLURRIES  34  32  92 W9        29.75R WCI  27
CHINOOK          N/A     46  32  57 W8        29.72R
FORT BENTON      N/A     45  28  53 SW6       29.77R
$$

MTZ017>020-022>042-056>058-061-062-251200-
EASTERN PLAINS

CITY           SKY/WX    TMP DP  RH WIND       PRES   REMARKS
BAKER          PTCLDY    40  37  89 SE10      29.67R
BILLINGS       LGT RAIN  41  38  89 NW9       29.69R
GLASGOW        MOCLDY    48  36  63 NW10      29.59F
JORDAN           N/A     47  38  71 NW16G22   29.64R
LIVINGSTON     MIX PCPN  37  32  82 SW17      29.73R WCI  27
MILES CITY     PTCLDY    48  37  65 S13       29.59S
SIDNEY         CLOUDY    48  39  71 SE8       29.69R
WOLF POINT     CLOUDY    52  38  58 E9        29.63R
BIG TIMBER       N/A     37  34  87 SW14G22   29.73R WCI  29
FORSYTH          N/A     46  45  93 W5        29.60R
PLENTYWOOD       N/A     46  39  76 E15       29.68R
POPLAR           N/A     48  37  66 E10       29.64R
$$

REGIONAL REPORTS...DAKOTAS

CITY           SKY/WX    TMP DP  RH WIND       PRES   REMARKS
WILLISTON      MOCLDY    47  40  76 E8        29.70R
MINOT          FOG       33  32  96 E5        29.78R VSB 1/4
DICKINSON      FOG       42  41  96 SE12      29.70R VSB 1/4
BEACH          FAIR      41  41 100 SE16      29.68S
CROSBY         CLOUDY    45  45 100 SE12      29.74S
WATFORD CITY   FAIR      41  41 100 SE8       29.70R
BISMARCK       CLOUDY    44  41  89 E7        29.76R
GRAND FORKS    CLOUDY    44  32  62 E10       29.85S
FARGO          CLOUDY    43  36  76 E9        29.81R
BUFFALO SD       N/A     40  38  93 E6        29.62S
RAPID CITY     PTCLDY    40  37  89 NW8       29.66R
$$

REGIONAL REPORTS...WYOMING/IDAHO/WASHINGTON

CITY           SKY/WX    TMP DP  RH WIND       PRES   REMARKS
GILLETTE       CLOUDY    45  39  79 SE7       29.63R
SHERIDAN       CLOUDY    46  39  76 W15G22    29.62R
BUFFALO WY     CLOUDY    47  36  65 N13       29.62R
CODY           CLOUDY    39  37  93 N12       29.66R WCI  32
YELLOWSTONE LA   N/A     30  27  88 VRB3      29.74R
IDAHO FALLS    CLOUDY    38  34  85 NW3       29.77S
SALMON         PTCLDY    34  27  75 SE6       29.78F WCI  29
BOISE          MOCLDY    43  33  68 CALM      29.79R
SPOKANE        MOCLDY    37  29  72 S7        29.80S WCI  32
$$

REGIONAL REPORTS...ALBERTA

CITY           SKY/WX    TMP DP  RH WIND       PRES   REMARKS
CALGARY        CLOUDY    34  30  86 N9        29.79S FOG     WCI  26
LETHBRIDGE     MOCLDY    34  32  93 NW17G23   29.78R WCI  23
MEDICINE HAT   CLOUDY    41  37  87 SW14      29.72R
$$

REGIONAL REPORTS...SASKATCHEWAN

CITY           SKY/WX    TMP DP  RH WIND       PRES   REMARKS
SWIFT CURRENT  CLOUDY    37  34  87 E13       29.68F WCI  29
REGINA         LGT RAIN  45  41  87 E16       29.73R
SASKATOON      CLOUDY    28  25  86 NE18G28   29.86R WCI  16
$$



USA.gov is the U.S. government's official web portal to all federal, state and local government web resources and services.